Date,TemperatureHighF,TemperatureAvgF,TemperatureLowF,DewpointHighF,DewpointAvgF,DewpointLowF,HumidityHigh,HumidityAvg,HumidityLow,PressureMaxIn,PressureMinIn,WindSpeedMaxMPH,WindSpeedAvgMPH,GustSpeedMaxMPH,PrecipitationSumIn
2013-9-1,78,72,66,63,59,54,82,67,45,30.08,30.01,7,2,10,0.00
2013-9-2,80,72,65,66,58,50,82,63,36,30.17,30.06,7,1,11,0.00
2013-9-3,80,72,67,65,61,56,83,68,48,30.20,30.15,6,2,10,0.00
2013-9-4,82,75,69,62,56,49,69,53,41,30.20,30.12,9,2,13,0.00
2013-9-5,83,75,69,65,56,49,74,54,39,30.12,29.96,9,2,12,0.00
2013-9-6,81,74,68,67,61,55,81,64,47,29.98,29.91,9,2,12,0.00
2013-9-7,82,74,68,66,62,58,89,68,52,30.11,29.97,8,2,12,0.00
2013-9-8,82,73,67,69,64,59,92,75,48,30.19,30.10,9,1,11,0.00
2013-9-9,76,70,66,71,66,58,95,86,67,30.15,30.07,11,2,15,0.14
2013-9-10,73,66,63,63,61,58,93,83,62,30.11,29.98,8,2,12,0.02
2013-9-11,72,67,62,64,61,58,95,84,65,30.03,29.96,12,3,16,0.06
2013-9-12,68,64,60,59,56,53,92,75,62,30.01,29.94,9,3,18,0.02
2013-9-13,72,65,60,58,55,50,84,70,47,30.12,29.97,7,2,15,0.00
2013-9-14,72,66,60,58,54,50,88,67,47,30.14,30.07,8,2,12,0.00
2013-9-15,71,64,60,63,58,52,96,83,65,30.09,29.84,8,2,15,0.84
2013-9-16,70,63,58,62,58,55,96,83,66,29.84,29.75,8,2,17,0.00
2013-9-17,68,64,60,60,57,50,92,80,52,29.76,29.66,15,3,19,0.00
2013-9-18,71,63,58,59,56,53,89,78,59,29.80,29.73,10,2,14,0.00
2013-9-19,72,64,60,63,60,56,95,85,69,29.85,29.71,10,3,11,0.00
2013-9-20,75,67,59,62,57,53,90,73,51,30.05,29.85,8,1,11,0.00
2013-9-21,77,70,64,61,58,55,84,66,48,30.13,30.05,9,2,14,0.00
2013-9-22,75,67,61,59,55,49,85,67,41,30.19,30.13,14,2,17,0.00
2013-9-23,70,64,59,58,55,51,88,74,61,30.17,30.10,8,2,11,0.00
2013-9-24,74,65,59,61,57,53,92,78,51,30.10,30.05,8,1,12,0.00
2013-9-25,73,64,58,61,58,50,93,79,60,30.07,30.01,5,1,9,0.00
2013-9-26,74,66,60,63,59,54,93,79,54,30.05,29.99,5,1,10,0.00
2013-9-27,74,67,62,64,60,57,93,79,58,30.02,29.97,7,1,11,0.00
2013-9-28,76,67,60,65,59,56,89,78,56,29.99,29.91,7,1,13,0.00
2013-9-29,71,67,62,66,64,59,96,90,78,29.92,29.70,14,4,19,0.71
2013-9-30,70,65,58,66,61,55,97,89,69,29.71,29.60,8,2,25,1.88